Погода в Ореховне

Россия / Псковская область     58°37′08″N   28°58′15″E
темп.,
°C
ветер,
м/с
пор.,
м/с
влажн.,
%
обл.,
%
осадки,
мм/ч
давл.,
гПа
погр.,
м
6 марта, сб
сб600:00−5зсз367965 0.0 1017465
03:00−6зсз258956 0.0 1019228
06:00−6з36880 0.0 1017254
09:00−6з37830 0.0 1018364
12:00−3зюз58590 0.0 1016881
15:00−1юз6125447 0.0 10111198
18:00−2юз81589100 0.7 10061245
21:00−1зюз81792100 3.1 10011181
7 марта, вс
вс700:00−1зюз81593100 1.9 9961086
03:00−4з41081100 4.6 995871
06:00−6зсз91681100 0.4 9941613
09:00−6зюз7147783 0.5 9941250
12:00−4зсз61184100 1.0 9921214
15:00−4зсз6973100 1.8 9911248
18:00−6с5976100 1.6 9931107
21:00−8ссз51177100 1.9 998919
8 марта, пн
пн800:00−9сз4108068 0.0 1001776
03:00−8ссз498985 0.1 1004880
06:00−10ссз51085100 0.1 1006705
09:00−11ссз5985100 0.1 1009631
12:00−10ссз5876100 0.0 1011687
15:00−7ссз587097 0.0 1013826
18:00−9ссз487424 0.0 1015808
21:00−12ссз388720 0.0 1017472
9 марта, вт
вт900:00−13сз23920 0.0 1018109
03:00−12з238637 0.0 1018148
06:00−11ююз2491100 0.1 1017201
09:00−9ю4892100 1.5 1015469
12:00−6юв3491100 1.6 1014291
15:00−7в4792100 3.5 1014376
18:00−9в5893100 2.4 1014505
21:00−5юв1397100 1.4 1015135
10 марта, ср
ср1000:00−4зюз2897100 1.3 1014512
03:00−4зюз2897100 2.5 1013538
06:00−4юз1597100 1.8 1012368
09:00−4юз2793100 2.8 1011493
12:00−2юз3593100 0.8 1010435
15:000юз4788100 1.6 1008672
18:00−1ююз389098 0.1 1006577
21:00−3ю399398 0.1 1005339